Regional Weather Roundup
Issued by NWS

Home | Current Version | Previous Version | Graphics & Text | Print | Product List | Glossary On
Versions: 1 2 3 4 5 6 7 8 9 10 11 12 13 14 15 16 17 18 19 20 21 22 23 24 25 26 27 28 29 30 31 32 33 34 35 36 37 38 39 40 41 42 43 44 45 46 47 48 49 50
000
ASUS43 KMPX 180810
RWRMN
WEATHER ROUNDUP FOR MINNESOTA
NATIONAL WEATHER SERVICE TWIN CITIES/CHANHASSEN MN
300 AM CDT THU SEP 18 2014


NOTE: "FAIR" INDICATES FEW OR NO CLOUDS BELOW 12,000 FEET WITH NO
SIGNIFICANT WEATHER AND/OR OBSTRUCTIONS TO VISIBILITY. N/A MEANS
CURRENT SKY AND/OR WEATHER CONDITIONS ARE NOT AVAILABLE.

MNZ060>063-068>070-180900-
   Twin Cities Metro

CITY           SKY/WX    TMP DP  RH WIND       PRES   REMARKS
TWIN CITIES    CLEAR     52  48  86 NE9       30.06S
ST PAUL        CLEAR     51  48  89 NE5       30.07S
CRYSTAL        CLEAR     50  47  89 NE6       30.06S
BLAINE         CLEAR     48  48 100 N3        30.07S
LAKEVILLE      CLEAR     50  48  93 CALM      30.05S FOG
EDEN PRAIRIE     N/A    N/A N/A N/A MISG      30.04S
SOUTH ST PAUL  CLEAR     52  49  88 NE5       30.06S
LAKE ELMO      FAIR      48  46  93 NE5       30.07S
$$
MNZ001>005-007-008-013>017-022>024-027-028-180900-
   Northwest Minnesota

CITY           SKY/WX    TMP DP  RH WIND       PRES   REMARKS
BEMIDJI        CLOUDY    46  45  95 SE13      30.07S
HALLOCK        CLEAR     39  37  93 E6        30.05F
ROSEAU         CLEAR     36  30  80 E5        30.07F
WARROAD        CLEAR     43  37  81 E7        30.08F
THIEF RVR FALL CLEAR     43  39  87 E6        30.05S
CROOKSTON      CLEAR     45  43  93 E8        30.04S
FOSSTON        CLOUDY    45  43  93 SE3       30.04F
DETROIT LAKES  PTCLDY    50  48  93 SE8       30.05R
MOORHEAD       CLEAR     46  46 100 CALM      30.02R
PARK RAPIDS    CLOUDY    46  45  96 SE9       30.07R FOG
MAHNOMEN       FAIR      49  47  93 SE5       30.02S
$$
MNZ006-009>011-018-025>026-180900-
   North Central Minnesota

CITY           SKY/WX    TMP DP  RH WIND       PRES   REMARKS
BAUDETTE       CLEAR     36  34  92 E7        30.09F
FLAG ISLAND    CLEAR     46  39  76 SE9       30.08S
INTL FALLS     CLOUDY    40  39  97 SE5       30.11F
WASKISH        CLOUDY    41  39  93 CALM      30.08F
BIG FORK       CLOUDY    45  41  87 SE7       30.11S
LONGVILLE      MOCLDY    43  41  93 SE8G17    30.10R
GRAND RAPIDS   CLOUDY    43  37  81 SE10      30.11F
CRANE LAKE     CLOUDY    39  39 100 SE3       30.15F
ORR            CLOUDY    41  37  87 CALM      30.11S
COOK           CLOUDY    39  39 100 SE5       30.14S
WALKER         CLOUDY    45  44  95 SE5       30.08S
$$
MNZ012-019>021-037-180900-
   Northeast Minnesota

CITY           SKY/WX    TMP DP  RH WIND       PRES   REMARKS
DULUTH         CLOUDY    44  37  76 E12       30.13S
ELY            CLOUDY    39  37  93 CALM      30.14S
HIBBING        CLOUDY    44  39  82 SE8       30.13S
EVELETH        CLOUDY    43  41  93 SE6       30.14S
DULUTH HARBOR  CLOUDY    46  41  81 E12G18    30.16S
TWO HARBORS    CLOUDY    43  36  75 E7        30.14S
SILVER BAY     CLEAR     41  39  93 E3        30.14S
GRAND MARAIS     N/A     46  37  71 SE8       30.18R
G MARAIS ARPRT CLOUDY    37  30  75 CALM      30.16R
$$
MNZ029>031-032-039>041-046>048-054>057-064-180900-
   West Central Minnesota

CITY           SKY/WX    TMP DP  RH WIND       PRES   REMARKS
FERGUS FALLS   CLEAR     54  50  87 E6        30.02S
WHEATON        CLEAR     45  43  93 CALM      30.02S
MORRIS         CLEAR     52  50  93 E9        30.00S
ALEXANDRIA     FOG       50  49  96 E14       30.05S VSB 3/4
ELBOW LAKE     FAIR      53  51  92 E9        30.01S
WADENA         CLOUDY    46  46 100 E12       30.06S FOG
GLENWOOD       CLOUDY    50  48  93 E13       30.05R FOG
APPLETON       CLEAR     52  48  87 SE3       29.99F
BENSON         CLEAR     55  52  88 E7        30.01S
ORTONVILLE     CLEAR     52  48  87 SE5       29.99S
MADISON        CLEAR     52  50  93 CALM      29.99S
WILLMAR        FAIR      55  52  88 E9        30.04S
$$
MNZ033>034-036-042>043-049>051-058-059-180900-
   Central Minnesota

CITY           SKY/WX    TMP DP  RH WIND       PRES   REMARKS
ST CLOUD       CLOUDY    50  46  86 E8        30.08S
SAUK CENTRE    FOG       47  47  99 E8        30.06S VSB 1/2
PAYNESVILLE    CLOUDY    47  47 100 NE10      30.06S FOG
AITKIN         MOCLDY    46  39  76 E7        30.10S
PINE RIVER     CLOUDY    45  43  93 E8        30.12S
BRAINERD       CLOUDY    46  44  93 VRB3      30.09S
STAPLES        CLOUDY    46  45  93 E5        30.07F
LONG PRAIRIE   FOG       45  45 100 NE8       30.07S VSB 1/2
LITTLE FALLS   CLOUDY    46  45  93 E3        30.08S
LITCHFIELD     CLOUDY    52  52 100 E9        30.05S
BUFFALO        CLOUDY    49  46  88 NE7       30.07S
MAPLE LAKE     CLOUDY    50  49  95 NE8       30.07S
$$
MNZ037-044-045-052-053-180900-
   East Central Minnesota

CITY           SKY/WX    TMP DP  RH WIND       PRES   REMARKS
PRINCETON      CLOUDY    48  45  87 NE3       30.09S
MORA           CLEAR     41  37  87 NE3       30.12S
CAMBRIDGE      CLEAR     46  39  76 NE5       30.07F
RUSH CITY      CLOUDY    45  42  92 NE3       30.10S
MOOSE LAKE     MOCLDY    41  37  87 NE3       30.11S
HINCKLEY       FAIR      41  39  93 NE5       30.11S
CLOQUET        CLOUDY    43  36  75 E9G16     30.13S
MCGREGOR       CLEAR     41  37  87 E5        30.12F
$$
MNZ071>073-080-081-089-090-097-098-180900-
   Southwest Minnesota

CITY           SKY/WX    TMP DP  RH WIND       PRES   REMARKS
MONTEVIDEO     CLEAR     54  54 100 S6        30.01S
GRANITE FALLS  CLEAR     50  49  96 E3        30.02S
CANBY          CLEAR     49  49  97 CALM      30.01S
MARSHALL       CLEAR     50  45  81 CALM      29.99S
REDWOOD FALLS  CLEAR     55  52  89 E5        30.00F
OLIVIA         CLEAR     55  52  88 E7        30.01S
PIPESTONE      CLEAR     55  52  88 SE3       30.00S
WINDOM         CLEAR     54  52  94 CALM      30.01F
WORTHINGTON    CLEAR     52  48  87 E3        30.01F
JACKSON        PTCLDY    55  50  82 CALM      30.02S
TRACY          CLEAR     57  53  86 CALM      30.01S
SLAYTON        CLEAR     51  50  95 CALM      30.01F
$$
MNZ065>067-074>077-082>085-091>093-180900-
   South Central Minnesota

CITY           SKY/WX    TMP DP  RH WIND       PRES   REMARKS
MANKATO        CLEAR     55  48  76 S7        30.02F
NEW ULM        CLEAR     52  52 100 SE3       30.02S
ST JAMES       CLEAR     54  52  94 E6        30.02F
FAIRMONT       CLEAR     52  46  82 CALM      30.02S
GLENCOE        CLEAR     54  51  89 CALM      30.03S
FARIBAULT      PTCLDY    52  46  82 CALM      30.04S HAZE
OWATONNA       CLEAR     46  46 100 CALM      30.04S
WASECA         CLEAR     48  45  87 E3        30.05S
ALBERT LEA     CLEAR     48  48 100 CALM      30.04S
$$
MNZ078>079-086>088-094>096-180900-
   Southeast Minnesota

CITY           SKY/WX    TMP DP  RH WIND       PRES   REMARKS
ROCHESTER      CLEAR     51  48  89 S7        30.05S
RED WING       CLEAR     54  50  87 E5        30.04F
STANTON        PTCLDY    50  48  93 NE3       30.03S FOG
DODGE CENTER   CLEAR     52  48  87 CALM      30.04S
WINONA         CLOUDY    54  54 100 CALM      30.05S FOG
AUSTIN         CLEAR     48  46  93 CALM      30.04S
PRESTON        CLEAR     52  52 100 S3        30.05S
$$
ABBREVIATIONS USED IN REMARKS
   TC - TEMPERATURES IN CELSIUS
  WCI - WIND CHILL INDEX
   HX - HEAT INDEX
  VSB - VISIBILITY
$$


USA.gov is the U.S. government's official web portal to all federal, state and local government web resources and services.